Location: Auckland
(36.8670°S, 174.7670°E)
Time: 12:49:33
(UTC+12:00)

Tiros 1 despin weight - Pass Details

Date: 23 July 2019
Orbit: 594 x 642 km, 48.2° (Epoch: 23 August)

Event Time Altitude Azimuth Distance (km) Brightness Sun altitude
Rises 05:55:36 0° 237° (WSW) 2,879 - -18.1°
Reaches altitude 10° 05:57:54 10° 238° (WSW) 1,978 - -17.7°
Exits shadow 06:00:26 33° 244° (WSW) 1,048 ? -17.2°
Maximum altitude 06:02:26 74° 323° (NW) 646 ? -16.8°
Drops below altitude 10° 06:07:00 10° 47° (NE) 1,990 ? -15.9°
Sets 06:09:20 0° 49° (NE) 2,899 ? -15.5°
